period_start,C,m1,H,J0,J1,J2,J3,J4,J5,JA,JB,JC,JD,JJ,JK,JN,#
2018-01-30 00:05:00,0.09,6.13,0.00,17.70,21.25,24.64,14.35,49.74,1023.45,2045.01,1685.02,1890.69,2167.39,599.96,610.96,35.42,0000 0000 0000 0000 000000
2018-01-30 00:10:02,0.09,6.14,0.00,17.69,21.23,24.63,14.35,49.66,1023.45,2045.02,1684.24,1890.02,2166.62,599.78,610.77,35.47,0000 0000 0000 0000 000000
2018-01-30 00:15:03,0.09,6.14,0.00,17.67,21.21,24.62,14.44,49.69,1023.45,2045.03,1683.55,1889.50,2165.99,599.99,611.07,35.52,0000 0000 0000 0000 000000
2018-01-30 00:20:04,0.06,6.14,0.00,17.65,21.19,24.61,14.38,49.62,1023.50,2045.05,1682.92,1889.00,2165.20,600.08,611.16,35.58,0000 0000 0000 0000 000000
2018-01-30 00:25:05,0.12,6.15,0.00,17.63,21.17,24.56,14.40,49.70,1023.51,2045.21,1682.06,1888.45,2164.84,600.03,611.15,35.63,0000 0000 0000 0000 000000
2018-01-30 00:30:07,0.09,6.16,0.00,17.61,21.16,24.56,14.38,49.73,1023.45,2045.40,1681.20,1888.00,2164.06,599.96,611.03,35.68,0000 0000 0000 0000 000000
2018-01-30 00:35:08,0.60,6.17,0.00,17.58,21.14,24.53,14.33,49.70,1023.46,2045.73,1678.00,1886.00,2161.86,600.02,611.37,35.73,0000 0000 0000 0000 000000
2018-01-30 00:40:09,0.63,6.21,0.00,17.55,21.12,24.53,14.29,49.70,1023.45,2045.92,1670.59,1881.70,2157.07,599.68,610.88,35.78,0000 0000 0000 0000 000000
2018-01-30 00:45:10,0.21,6.23,0.00,17.53,21.10,24.51,14.41,49.68,1023.45,2045.98,1668.23,1880.27,2155.42,599.72,611.13,35.83,0000 0000 0000 0000 000000
2018-01-30 00:50:11,0.17,6.24,0.00,17.54,21.09,24.48,14.35,49.72,1023.45,2045.99,1666.37,1879.03,2154.05,599.98,611.25,35.88,0000 0000 0000 0000 000000
2018-01-30 00:55:12,0.17,6.25,0.00,17.55,21.07,24.47,14.46,49.85,1023.45,2045.99,1664.79,1878.08,2152.95,600.24,611.52,35.93,0000 0000 0000 0000 000000
2018-01-30 01:00:14,0.14,6.25,0.00,17.56,21.06,24.44,14.35,49.90,1023.46,2045.99,1663.56,1877.17,2151.97,600.08,611.32,35.98,0000 0000 0000 0000 000000
2018-01-30 01:05:15,0.14,6.26,0.00,17.54,21.04,24.41,14.33,49.85,1023.45,2046.00,1662.51,1876.30,2151.00,599.92,611.22,36.03,0000 0000 0000 0000 000000
2018-01-30 01:10:16,0.14,6.27,0.00,17.53,21.03,24.40,14.38,49.92,1023.45,2046.01,1661.34,1875.53,2149.92,599.98,611.30,36.08,0000 0000 0000 0000 000000
2018-01-30 01:15:17,0.17,6.28,0.00,17.54,21.02,24.39,14.39,49.88,1023.42,2046.01,1659.97,1874.27,2148.48,600.11,611.50,36.13,0000 0000 0000 0000 000000
2018-01-30 01:20:18,0.10,6.28,0.00,17.53,21.01,24.39,14.39,49.83,1023.34,2046.01,1658.96,1873.74,2147.65,599.98,611.18,36.18,0000 0000 0000 0000 000000
2018-01-30 01:25:19,0.33,6.29,0.00,17.48,20.99,24.39,14.32,49.77,1023.33,2046.03,1656.39,1872.32,2146.12,599.87,611.28,36.23,0000 0000 0000 0000 000000
2018-01-30 01:30:20,0.34,6.32,0.00,17.50,20.98,24.35,14.25,49.80,1023.37,2046.04,1652.13,1870.13,2143.66,599.78,611.21,36.28,0000 0000 0000 0000 000000
2018-01-30 01:35:22,0.09,6.32,0.00,17.53,20.97,24.32,14.36,49.73,1023.30,2046.11,1651.13,1869.75,2142.96,600.27,611.45,36.33,0000 0000 0000 0000 000000
2018-01-30 01:40:23,0.12,6.32,0.00,17.52,20.95,24.31,14.38,49.69,1022.97,2046.16,1650.52,1869.04,2142.12,599.86,610.86,36.38,0000 0000 0000 0000 000000
2018-01-30 01:45:24,0.08,6.33,0.00,17.50,20.94,24.32,14.35,49.74,1022.99,2046.30,1649.80,1868.71,2141.74,599.83,610.93,36.44,0000 0000 0000 0000 000000
2018-01-30 01:50:25,0.14,6.34,0.00,17.51,20.92,24.31,14.43,49.81,1023.07,2046.71,1649.03,1868.03,2141.04,600.33,611.38,36.49,0000 0000 0000 0000 000000
2018-01-30 01:55:27,0.10,6.34,0.00,17.49,20.91,24.32,14.38,49.79,1023.31,2046.95,1648.28,1867.81,2140.57,600.11,611.39,36.54,0000 0000 0000 0000 000000
2018-01-30 02:00:28,0.08,6.35,0.00,17.48,20.89,24.31,14.27,49.88,1023.34,2046.98,1647.59,1867.07,2140.01,599.72,611.06,36.59,0000 0000 0000 0000 000000
2018-01-30 02:05:29,0.11,6.35,0.00,17.47,20.88,24.30,14.38,49.88,1023.40,2046.98,1646.69,1866.63,2139.35,600.10,611.52,36.64,0000 0000 0000 0000 000000
2018-01-30 02:10:30,0.05,6.36,0.00,17.44,20.87,24.29,14.32,50.02,1023.42,2046.99,1645.95,1866.01,2138.75,599.77,611.27,36.69,0000 0000 0000 0000 000000
2018-01-30 02:15:32,0.11,6.36,0.00,17.42,20.86,24.27,14.33,49.95,1023.44,2046.99,1645.12,1865.43,2137.96,600.02,611.55,36.74,0000 0000 0000 0000 000000
2018-01-30 02:20:33,0.09,6.37,0.00,17.42,20.84,24.28,14.35,49.83,1023.44,2046.99,1644.33,1864.89,2137.11,599.88,611.46,36.79,0000 0000 0000 0000 000000
2018-01-30 02:25:34,0.12,6.37,0.00,17.42,20.84,24.26,14.40,49.94,1023.41,2046.99,1643.41,1864.07,2136.44,600.03,611.57,36.84,0000 0000 0000 0000 000000
2018-01-30 02:30:35,0.11,6.38,0.00,17.40,20.82,24.25,14.38,50.06,1023.42,2046.99,1642.53,1863.56,2135.73,599.94,611.48,36.89,0000 0000 0000 0000 000000
2018-01-30 02:35:36,0.07,6.38,0.00,17.39,20.82,24.25,14.41,50.03,1023.44,2046.99,1641.68,1862.98,2135.00,600.25,611.79,36.94,0000 0000 0000 0000 000000
2018-01-30 02:40:38,0.10,6.39,0.00,17.38,20.81,24.23,14.31,49.88,1023.45,2046.99,1640.94,1862.18,2134.18,600.08,611.55,36.99,0000 0000 0000 0000 000000
2018-01-30 02:45:39,0.10,6.39,0.00,17.35,20.79,24.25,14.44,49.96,1023.46,2046.99,1640.08,1861.73,2133.49,600.17,611.88,37.04,0000 0000 0000 0000 000000
2018-01-30 02:50:40,0.09,6.40,0.00,17.34,20.79,24.24,14.42,50.15,1023.80,2046.99,1639.12,1861.01,2132.84,599.88,611.88,37.09,0000 0000 0000 0000 000000
2018-01-30 02:55:42,0.13,6.40,0.00,17.32,20.78,24.22,14.43,50.13,1023.78,2046.99,1638.15,1860.32,2132.05,600.50,612.52,37.14,0000 0000 0000 0000 000000
2018-01-30 03:00:43,0.09,6.41,0.00,17.30,20.77,24.20,14.46,50.15,1023.55,2046.99,1637.36,1859.86,2131.23,600.20,612.06,37.19,0000 0000 0000 0000 000000
2018-01-30 03:05:44,0.10,6.41,0.00,17.30,20.77,24.20,14.40,50.15,1023.57,2046.99,1636.66,1859.06,2130.51,600.12,611.96,37.24,0000 0000 0000 0000 000000
2018-01-30 03:10:46,0.09,6.42,0.00,17.31,20.75,24.20,14.37,50.06,1023.54,2046.99,1635.77,1858.54,2129.86,600.26,612.11,37.29,0000 0000 0000 0000 000000
2018-01-30 03:15:47,0.07,6.42,0.00,17.28,20.74,24.17,14.32,50.01,1023.46,2047.00,1634.99,1857.98,2129.06,599.91,611.79,37.35,0000 0000 0000 0000 000000
2018-01-30 03:20:48,0.13,6.43,0.00,17.26,20.74,24.17,14.43,50.08,1023.45,2047.00,1634.12,1857.24,2128.31,600.11,611.95,37.40,0000 0000 0000 0000 000000
2018-01-30 03:25:50,0.07,6.43,0.00,17.26,20.72,24.15,14.38,50.17,1023.46,2047.01,1633.23,1856.87,2127.81,600.09,611.98,37.45,0000 0000 0000 0000 000000
2018-01-30 03:30:51,0.11,6.44,0.00,17.24,20.72,24.15,14.29,50.16,1023.45,2047.00,1632.50,1856.08,2127.03,600.04,612.02,37.50,0000 0000 0000 0000 000000
2018-01-30 03:35:52,0.08,6.44,0.00,17.24,20.71,24.12,14.39,50.08,1023.47,2047.02,1631.82,1855.69,2126.26,600.37,612.55,37.55,0000 0000 0000 0000 000000
2018-01-30 03:40:53,0.09,6.45,0.00,17.23,20.69,24.12,14.38,50.02,1023.46,2047.02,1630.88,1855.02,2125.68,599.85,611.87,37.60,0000 0000 0000 0000 000000
2018-01-30 03:45:54,0.11,6.45,0.00,17.23,20.69,24.11,14.33,50.09,1023.45,2047.05,1629.89,1854.50,2124.91,600.06,611.98,37.65,0000 0000 0000 0000 000000
2018-01-30 03:50:56,0.11,6.46,0.00,17.22,20.68,24.11,14.38,50.00,1023.45,2047.11,1628.93,1853.87,2124.05,600.04,612.03,37.70,0000 0000 0000 0000 000000
2018-01-30 03:55:57,0.14,6.47,0.00,17.22,20.67,24.09,14.36,50.12,1023.45,2047.29,1628.00,1853.05,2123.20,600.02,612.07,37.75,0000 0000 0000 0000 000000
2018-01-30 04:00:58,0.15,6.47,0.00,17.21,20.67,24.11,14.35,50.18,1023.45,2047.46,1627.06,1852.34,2122.37,599.88,611.84,37.80,0000 0000 0000 0000 000000
2018-01-30 04:05:59,0.11,6.48,0.00,17.20,20.67,24.09,14.35,50.18,1023.45,2047.60,1626.12,1851.86,2121.70,599.83,611.86,37.85,0000 0000 0000 0000 000000
2018-01-30 04:11:00,0.10,6.49,0.00,17.20,20.65,24.08,14.38,50.05,1023.44,2047.67,1625.29,1851.08,2120.98,599.72,611.73,37.90,0000 0000 0000 0000 000000
2018-01-30 04:16:02,0.14,6.49,0.00,17.21,20.64,24.07,14.43,50.27,1023.44,2047.86,1624.54,1850.60,2120.15,600.17,612.25,37.95,0000 0000 0000 0000 000000
2018-01-30 04:21:03,0.09,6.50,0.00,17.20,20.64,24.06,14.35,50.27,1023.44,2047.88,1623.68,1849.97,2119.48,599.94,611.95,38.00,0000 0000 0000 0000 000000
2018-01-30 04:26:04,0.12,6.50,0.00,17.18,20.64,24.08,14.39,50.26,1023.46,2047.94,1622.67,1849.19,2118.88,599.93,611.95,38.05,0000 0000 0000 0000 000000
2018-01-30 04:31:05,0.09,6.51,0.00,17.19,20.63,24.04,14.34,50.32,1023.49,2047.96,1621.88,1848.67,2118.05,599.83,611.90,38.10,0000 0000 0000 0000 000000
2018-01-30 04:36:06,0.11,6.51,0.00,17.18,20.62,24.03,14.39,50.31,1023.50,2047.98,1620.95,1847.99,2117.21,599.71,611.74,38.15,0000 0000 0000 0000 000000
2018-01-30 04:41:08,0.13,6.52,0.00,17.18,20.62,24.04,14.38,50.28,1023.50,2047.97,1620.03,1847.19,2116.38,600.24,612.35,38.20,0000 0000 0000 0000 000000
2018-01-30 04:46:09,0.12,6.53,0.00,17.17,20.62,24.02,14.35,50.29,1023.49,2047.99,1619.10,1846.57,2115.63,599.77,612.02,38.25,0000 0000 0000 0000 000000
2018-01-30 04:51:10,0.09,6.53,0.00,17.17,20.62,24.01,14.42,50.31,1023.48,2047.98,1618.11,1845.92,2114.79,600.31,612.42,38.31,0000 0000 0000 0000 000000
2018-01-30 04:56:11,0.11,6.54,0.00,17.18,20.62,24.01,14.34,50.27,1023.46,2047.98,1617.30,1845.11,2113.94,599.97,612.06,38.36,0000 0000 0000 0000 000000
2018-01-30 05:01:13,0.13,6.54,0.00,17.16,20.61,24.01,14.34,50.35,1023.46,2047.98,1616.40,1844.50,2113.08,599.66,611.73,38.41,0000 0000 0000 0000 000000
2018-01-30 05:06:14,0.09,6.55,0.00,17.16,20.60,24.00,14.30,50.29,1023.47,2047.99,1615.44,1843.92,2112.33,599.68,611.83,38.46,0000 0000 0000 0000 000000
2018-01-30 05:11:15,0.12,6.55,0.00,17.17,20.59,24.01,14.52,50.38,1023.50,2047.99,1614.57,1843.11,2111.60,600.27,612.35,38.51,0000 0000 0000 0000 000000
2018-01-30 05:16:16,0.10,6.56,0.00,17.17,20.59,24.00,14.33,50.36,1023.56,2047.99,1613.63,1842.50,2111.00,599.86,612.12,38.56,0000 0000 0000 0000 000000
2018-01-30 05:21:18,0.07,6.56,0.00,17.17,20.59,24.00,14.37,50.37,1023.60,2047.99,1612.82,1841.96,2110.33,600.07,612.25,38.61,0000 0000 0000 0000 000000
2018-01-30 05:26:19,0.11,6.57,0.00,17.16,20.59,24.00,14.36,50.34,1023.58,2047.99,1611.97,1841.15,2109.66,599.85,612.06,38.66,0000 0000 0000 0000 000000
2018-01-30 05:31:21,0.10,6.58,0.00,17.16,20.59,23.97,14.40,50.40,1023.81,2048.00,1611.09,1840.69,2108.89,599.97,612.30,38.71,0000 0000 0000 0000 000000
2018-01-30 05:36:22,0.09,6.58,0.00,17.14,20.59,23.98,14.36,50.36,1023.91,2048.00,1610.47,1840.02,2108.05,599.90,612.39,38.76,0000 0000 0000 0000 000000
2018-01-30 05:41:23,0.12,6.59,0.00,17.16,20.59,23.97,14.39,50.42,1023.94,2048.00,1609.66,1839.38,2107.26,599.94,612.35,38.81,0000 0000 0000 0000 000000
2018-01-30 05:46:24,0.07,6.59,0.00,17.16,20.59,23.96,14.33,50.38,1023.93,2048.00,1608.85,1838.89,2106.57,599.74,612.13,38.86,0000 0000 0000 0000 000000
2018-01-30 05:51:26,0.10,6.60,0.00,17.17,20.59,23.96,14.46,50.31,1023.94,2048.00,1607.95,1838.08,2105.88,600.25,612.56,38.91,0000 0000 0000 0000 000000
2018-01-30 05:56:27,0.12,6.60,0.00,17.17,20.58,23.97,14.39,50.30,1023.95,2047.99,1607.06,1837.52,2105.06,599.92,612.10,38.96,0000 0000 0000 0000 000000
2018-01-30 06:01:29,0.09,6.61,0.00,17.16,20.57,23.97,14.43,50.23,1023.96,2047.99,1606.23,1836.97,2104.24,600.03,612.55,39.01,0000 0000 0000 0000 000000
2018-01-30 06:06:30,0.12,6.61,0.00,17.17,20.57,24.00,14.34,50.17,1023.95,2047.99,1605.60,1836.19,2103.52,599.85,612.15,39.06,0000 0000 0000 0000 000000
2018-01-30 06:11:31,0.06,6.62,0.00,17.17,20.57,23.96,14.38,50.27,1023.95,2047.99,1604.77,1835.79,2102.86,599.78,612.16,39.11,0000 0000 0000 0000 000000
2018-01-30 06:16:32,0.09,6.62,0.00,17.18,20.57,23.95,14.37,50.21,1023.94,2047.99,1603.95,1835.06,2102.06,600.18,612.70,39.17,0000 0000 0000 0000 000000
2018-01-30 06:21:34,0.12,6.63,0.00,17.17,20.56,23.98,14.36,50.24,1023.94,2047.99,1603.09,1834.52,2101.45,599.87,612.18,39.22,0000 0000 0000 0000 000000
2018-01-30 06:26:35,0.07,6.63,0.00,17.17,20.55,23.96,14.46,50.33,1023.94,2047.99,1602.24,1833.99,2100.93,600.12,612.49,39.27,0000 0000 0000 0000 000000
2018-01-30 06:31:36,0.10,6.64,0.00,17.16,20.54,23.96,14.38,50.22,1023.94,2048.00,1601.75,1833.42,2100.09,599.97,612.36,39.32,0000 0000 0000 0000 000000
2018-01-30 06:36:37,0.06,6.64,0.00,17.17,20.54,23.97,14.33,50.21,1023.94,2048.00,1600.99,1833.00,2099.48,599.73,612.20,39.37,0000 0000 0000 0000 000000
2018-01-30 06:41:39,0.11,6.65,0.00,17.18,20.53,23.97,14.25,50.12,1023.94,2048.00,1600.12,1832.32,2098.98,599.64,612.16,39.42,0000 0000 0000 0000 000000
2018-01-30 06:46:40,0.07,6.65,0.00,17.17,20.52,23.96,14.43,50.08,1023.92,2048.01,1599.56,1832.00,2098.19,600.32,612.71,39.47,0000 0000 0000 0000 000000
2018-01-30 06:51:42,0.07,6.65,0.00,17.19,20.52,23.94,14.50,50.21,1023.65,2048.00,1599.00,1831.42,2097.74,600.35,612.45,39.52,0000 0000 0000 0000 000000
2018-01-30 06:56:43,0.07,6.66,0.00,17.20,20.52,23.93,14.29,50.08,1023.87,2048.01,1598.35,1831.00,2097.03,599.94,612.26,39.57,0000 0000 0000 0000 000000
2018-01-30 07:01:44,0.10,6.66,0.00,17.20,20.51,23.94,14.41,50.14,1023.94,2048.02,1597.75,1830.47,2096.56,600.12,612.44,39.62,0000 0000 0000 0000 000000
2018-01-30 07:06:46,0.05,6.67,0.00,17.20,20.50,23.95,14.37,50.15,1023.94,2048.03,1597.02,1830.00,2096.00,599.89,612.26,39.67,0000 0000 0000 0000 000000
2018-01-30 07:11:47,0.11,6.67,0.00,17.19,20.49,23.94,14.33,50.00,1023.94,2048.04,1596.27,1829.66,2095.38,599.98,612.42,39.72,0000 0000 0000 0000 000000
2018-01-30 07:16:48,0.06,6.67,0.00,17.19,20.49,23.94,14.43,50.11,1023.94,2048.04,1595.73,1829.03,2094.89,600.25,612.49,39.77,0000 0000 0000 0000 000000
2018-01-30 07:21:49,0.10,6.68,0.00,17.18,20.49,23.95,14.39,50.15,1023.94,2048.02,1594.98,1828.58,2094.08,600.07,612.47,39.82,0000 0000 0000 0000 000000
2018-01-30 07:26:51,0.09,6.68,0.00,17.17,20.48,23.93,14.44,50.11,1023.91,2048.07,1594.33,1828.02,2093.67,600.35,612.73,39.87,0000 0000 0000 0000 000000
2018-01-30 07:31:52,0.08,6.69,0.00,17.17,20.47,23.94,14.49,49.99,1023.88,2048.21,1593.79,1827.81,2093.02,600.28,612.66,39.92,0000 0000 0000 0000 000000
2018-01-30 07:36:53,0.08,6.69,0.00,17.15,20.47,23.93,14.33,49.99,1023.91,2048.14,1593.03,1827.07,2092.54,599.84,612.32,39.97,0000 0000 0000 0000 000000
2018-01-30 07:41:55,0.07,6.70,0.00,17.18,20.47,23.94,14.35,50.04,1023.93,2048.09,1592.20,1826.78,2091.97,600.03,612.39,40.02,0000 0000 0000 0000 000000
2018-01-30 07:46:56,0.12,6.70,0.00,17.18,20.47,23.95,14.46,50.03,1023.73,2048.27,1591.75,1826.05,2091.23,599.88,612.14,40.08,0000 0000 0000 0000 000000
2018-01-30 07:51:57,0.07,6.71,0.00,17.17,20.47,23.94,14.41,49.97,1023.82,2048.49,1591.02,1825.86,2090.88,599.92,612.34,40.13,0000 0000 0000 0000 000000
2018-01-30 07:56:58,0.12,6.71,0.00,17.17,20.47,23.93,14.36,50.12,1023.74,2048.49,1590.19,1825.08,2090.07,600.13,612.42,40.18,0000 0000 0000 0000 000000
2018-01-30 08:02:00,0.07,6.71,0.00,17.17,20.47,23.94,14.36,49.98,1023.84,2048.61,1589.71,1824.93,2089.65,599.97,612.13,40.23,0000 0000 0000 0000 000000
2018-01-30 08:07:01,0.09,6.72,0.00,17.19,20.47,23.93,14.41,50.08,1023.93,2048.60,1588.93,1824.14,2089.00,599.79,612.25,40.28,0000 0000 0000 0000 000000
2018-01-30 08:12:03,0.13,6.72,0.00,17.20,20.46,23.92,14.36,49.98,1023.92,2048.73,1588.08,1823.68,2088.21,599.86,612.24,40.33,0000 0000 0000 0000 000000
2018-01-30 08:17:05,0.09,6.73,0.00,17.18,20.45,23.93,14.32,49.99,1023.94,2048.75,1587.34,1823.02,2087.61,599.96,612.39,40.38,0000 0000 0000 0000 000000
2018-01-30 08:22:06,0.10,6.74,0.00,17.18,20.45,23.93,14.39,50.05,1023.94,2048.81,1586.70,1822.44,2086.99,599.89,612.31,40.43,0000 0000 0000 0000 000000
2018-01-30 08:27:07,0.08,6.74,0.00,17.18,20.45,23.93,14.52,50.08,1023.96,2048.89,1585.92,1821.97,2086.19,600.28,612.61,40.48,0000 0000 0000 0000 000000
2018-01-30 08:32:09,0.13,6.75,0.00,17.15,20.44,23.91,14.44,50.12,1024.18,2048.91,1585.07,1821.21,2085.58,599.72,612.21,40.53,0000 0000 0000 0000 000000
2018-01-30 08:37:10,0.08,6.75,0.00,17.16,20.45,23.91,14.19,49.98,1024.14,2048.94,1584.25,1820.83,2084.99,599.56,612.12,40.58,0000 0000 0000 0000 000000
2018-01-30 08:42:11,0.10,6.76,0.00,17.17,20.45,23.91,14.25,50.01,1024.36,2048.91,1583.57,1820.06,2084.18,599.72,612.46,40.63,0000 0000 0000 0000 000000
2018-01-30 08:47:13,0.08,6.76,0.00,17.17,20.45,23.90,14.44,50.15,1024.43,2048.89,1582.88,1819.71,2083.62,600.11,612.70,40.68,0000 0000 0000 0000 000000
2018-01-30 08:52:14,0.08,6.77,0.00,17.16,20.45,23.92,14.35,50.17,1024.43,2048.92,1582.08,1819.02,2082.93,600.01,612.68,40.73,0000 0000 0000 0000 000000
2018-01-30 08:57:15,0.11,6.77,0.00,17.18,20.45,23.91,14.31,50.03,1024.45,2048.92,1581.49,1818.55,2082.10,599.85,612.51,40.78,0000 0000 0000 0000 000000
2018-01-30 09:02:16,0.07,6.77,0.00,17.18,20.45,23.91,14.38,49.96,1024.43,2048.88,1580.80,1818.01,2081.50,599.78,612.44,40.83,0000 0000 0000 0000 000000
2018-01-30 09:07:17,0.09,6.78,0.00,17.18,20.45,23.91,14.27,49.99,1024.44,2048.92,1580.03,1817.41,2080.94,599.84,612.33,40.88,0000 0000 0000 0000 000000
2018-01-30 09:12:18,0.10,6.79,0.00,17.18,20.45,23.92,14.30,50.04,1024.45,2048.95,1579.23,1816.87,2080.10,600.03,612.76,40.94,0000 0000 0000 0000 000000
2018-01-30 09:17:19,0.18,6.79,0.00,17.18,20.45,23.91,14.49,50.13,1024.46,2048.97,1577.74,1815.92,2079.17,600.31,613.01,40.99,0000 0000 0000 0000 000000
2018-01-30 09:22:21,0.18,6.80,0.00,17.17,20.45,23.91,14.39,50.18,1024.68,2048.96,1576.36,1814.86,2077.98,600.09,612.72,41.04,0000 0000 0000 0000 000000
2018-01-30 09:27:22,0.13,6.81,0.00,17.18,20.44,23.91,14.33,50.23,1024.86,2048.95,1575.13,1813.94,2076.84,599.77,612.72,41.09,0000 0000 0000 0000 000000
2018-01-30 09:32:24,0.13,6.82,0.00,17.18,20.44,23.90,14.40,50.24,1024.91,2048.96,1574.13,1813.08,2075.92,599.77,612.74,41.14,0000 0000 0000 0000 000000
2018-01-30 09:37:25,0.20,6.83,0.00,17.18,20.44,23.92,14.42,50.24,1024.93,2048.96,1572.71,1812.12,2074.67,599.96,612.86,41.19,0000 0000 0000 0000 000000
2018-01-30 09:42:26,0.16,6.84,0.00,17.18,20.44,23.91,14.43,50.18,1024.94,2048.95,1571.21,1811.00,2073.33,600.03,613.13,41.24,0000 0000 0000 0000 000000
2018-01-30 09:47:27,0.15,6.85,0.00,17.19,20.44,23.90,14.41,50.15,1024.93,2048.96,1570.05,1810.09,2072.28,600.29,613.25,41.29,0000 0000 0000 0000 000000
2018-01-30 09:52:28,0.18,6.85,0.00,17.19,20.44,23.92,14.32,49.96,1024.95,2048.97,1568.69,1809.18,2071.31,599.59,612.46,41.34,0000 0000 0000 0000 000000
2018-01-30 09:57:29,0.15,6.86,0.00,17.21,20.44,23.91,14.45,50.01,1024.93,2048.95,1567.39,1808.16,2070.09,600.18,613.10,41.39,0000 0000 0000 0000 000000
2018-01-30 10:02:30,0.15,6.87,0.00,17.20,20.44,23.90,14.36,50.11,1024.94,2048.94,1566.07,1807.25,2068.98,599.56,612.43,41.44,0000 0000 0000 0000 000000
2018-01-30 10:07:32,0.19,6.88,0.00,17.20,20.44,23.91,14.39,50.08,1024.98,2048.93,1564.68,1806.27,2067.85,599.94,612.87,41.49,0000 0000 0000 0000 000000
2018-01-30 10:12:33,0.17,6.89,0.00,17.20,20.44,23.92,14.29,50.06,1025.15,2048.96,1563.30,1805.24,2066.69,599.96,612.87,41.54,0000 0000 0000 0000 000000
2018-01-30 10:17:34,0.18,6.90,0.00,17.18,20.44,23.90,14.39,50.13,1025.28,2048.95,1561.82,1804.17,2065.48,600.08,613.24,41.59,0000 0000 0000 0000 000000
2018-01-30 10:22:36,0.17,6.90,0.00,17.17,20.44,23.91,14.38,50.03,1025.21,2048.94,1560.55,1803.21,2064.41,599.90,613.08,41.64,0000 0000 0000 0000 000000
2018-01-30 10:27:37,0.13,6.91,0.00,17.17,20.44,23.91,14.40,50.15,1025.10,2048.98,1559.54,1802.49,2063.61,600.16,613.10,41.69,0000 0000 0000 0000 000000
2018-01-30 10:32:38,0.14,6.92,0.00,17.14,20.44,23.90,14.39,50.13,1025.12,2048.97,1558.47,1801.67,2062.65,600.19,613.19,41.74,0000 0000 0000 0000 000000
2018-01-30 10:37:39,0.12,6.93,0.00,17.13,20.44,23.91,14.33,50.18,1025.27,2048.98,1557.27,1800.88,2061.66,599.74,613.14,41.79,0000 0000 0000 0000 000000
2018-01-30 10:42:40,0.12,6.93,0.00,17.14,20.43,23.90,14.42,50.27,1025.28,2048.98,1556.25,1800.07,2060.81,600.12,613.38,41.84,0000 0000 0000 0000 000000
2018-01-30 10:47:42,0.13,6.94,0.00,17.13,20.43,23.91,14.38,50.22,1025.23,2048.98,1555.21,1799.28,2059.95,600.20,613.42,41.90,0000 0000 0000 0000 000000
2018-01-30 10:52:43,0.13,6.95,0.00,17.16,20.43,23.89,14.36,50.18,1025.13,2048.98,1554.23,1798.64,2059.07,600.20,613.43,41.95,0000 0000 0000 0000 000000
2018-01-30 10:57:44,0.12,6.95,0.00,17.14,20.42,23.89,14.33,50.23,1025.01,2048.98,1553.22,1797.84,2058.11,600.00,613.07,42.00,0000 0000 0000 0000 000000
2018-01-30 11:02:46,0.13,6.96,0.00,17.15,20.42,23.90,14.45,50.22,1024.92,2048.98,1552.28,1797.04,2057.17,600.34,613.30,42.05,0000 0000 0000 0000 000000
2018-01-30 11:07:47,0.14,6.97,0.00,17.14,20.43,23.90,14.46,50.27,1024.92,2048.99,1551.24,1796.24,2056.30,600.23,613.22,42.10,0000 0000 0000 0000 000000
2018-01-30 11:12:48,0.14,6.97,0.00,17.14,20.43,23.90,14.48,50.27,1024.93,2048.98,1550.29,1795.46,2055.33,600.21,613.24,42.15,0000 0000 0000 0000 000000
2018-01-30 11:17:50,0.12,6.98,0.00,17.14,20.44,23.89,14.37,50.22,1024.92,2048.98,1549.30,1794.70,2054.31,600.02,612.99,42.20,0000 0000 0000 0000 000000
2018-01-30 11:22:51,0.13,6.99,0.00,17.12,20.44,23.90,14.40,50.30,1024.93,2048.98,1548.20,1793.92,2053.38,599.72,612.89,42.25,0000 0000 0000 0000 000000
2018-01-30 11:27:52,0.14,6.99,0.00,17.11,20.44,23.90,14.44,50.21,1025.01,2048.97,1547.07,1793.06,2052.45,599.94,613.10,42.30,0000 0000 0000 0000 000000
2018-01-30 11:32:53,0.16,7.00,0.00,17.12,20.44,23.90,14.45,50.31,1025.11,2048.98,1545.84,1792.20,2051.54,600.11,613.37,42.35,0000 0000 0000 0000 000000
2018-01-30 11:37:54,0.14,7.01,0.00,17.11,20.44,23.90,14.32,50.28,1025.36,2048.99,1544.80,1791.56,2050.54,599.51,612.86,42.40,0000 0000 0000 0000 000000
2018-01-30 11:42:56,0.14,7.02,0.00,17.13,20.43,23.88,14.38,50.21,1025.39,2048.98,1543.69,1790.75,2049.55,599.78,613.07,42.45,0000 0000 0000 0000 000000
2018-01-30 11:47:57,0.14,7.02,0.00,17.11,20.42,23.89,14.51,50.25,1025.35,2048.98,1542.57,1789.89,2048.53,600.22,613.52,42.50,0000 0000 0000 0000 000000
2018-01-30 11:52:58,0.14,7.03,0.00,17.11,20.42,23.88,14.45,50.25,1025.29,2048.97,1541.42,1789.03,2047.58,599.91,613.35,42.55,0000 0000 0000 0000 000000
2018-01-30 11:57:59,0.12,7.04,0.00,17.12,20.42,23.90,14.34,50.17,1025.02,2048.98,1540.41,1788.19,2046.92,599.76,612.94,42.60,0000 0000 0000 0000 000000
2018-01-30 12:03:01,0.14,7.05,0.00,17.11,20.42,23.89,14.38,50.16,1024.99,2048.98,1539.29,1787.38,2046.01,600.11,613.22,42.65,0000 0000 0000 0000 000000
2018-01-30 12:08:02,0.13,7.05,0.00,17.09,20.42,23.88,14.46,50.24,1024.94,2048.99,1538.19,1786.67,2045.10,599.96,612.96,42.70,0000 0000 0000 0000 000000
2018-01-30 12:13:03,0.13,7.06,0.00,17.10,20.42,23.88,14.28,50.27,1024.93,2048.99,1537.05,1785.85,2044.17,599.88,612.93,42.75,0000 0000 0000 0000 000000
2018-01-30 12:18:05,0.13,7.07,0.00,17.12,20.42,23.88,14.43,50.27,1024.94,2048.98,1536.09,1785.04,2043.26,600.01,613.04,42.81,0000 0000 0000 0000 000000
2018-01-30 12:23:06,0.13,7.07,0.00,17.12,20.42,23.87,14.39,50.32,1024.95,2048.98,1535.20,1784.23,2042.36,599.83,612.96,42.86,0000 0000 0000 0000 000000
2018-01-30 12:28:08,0.12,7.08,0.00,17.11,20.42,23.87,14.40,50.27,1024.97,2048.99,1534.35,1783.65,2041.61,599.94,613.00,42.91,0000 0000 0000 0000 000000
2018-01-30 12:33:09,0.12,7.08,0.00,17.12,20.42,23.87,14.46,50.26,1025.04,2048.98,1533.55,1782.86,2040.63,600.07,613.30,42.96,0000 0000 0000 0000 000000
2018-01-30 12:38:10,0.12,7.09,0.00,17.12,20.42,23.89,14.43,50.27,1025.30,2048.98,1532.48,1782.04,2039.86,600.20,613.50,43.01,0000 0000 0000 0000 000000
2018-01-30 12:43:11,0.11,7.10,0.00,17.12,20.42,23.88,14.39,50.14,1025.29,2048.98,1531.84,1781.40,2038.89,599.95,613.39,43.06,0000 0000 0000 0000 000000
2018-01-30 12:48:13,0.11,7.10,0.00,17.10,20.42,23.88,14.45,50.08,1025.21,2048.96,1530.85,1780.79,2038.01,600.01,613.15,43.11,0000 0000 0000 0000 000000
2018-01-30 12:53:14,0.13,7.11,0.00,17.11,20.42,23.88,14.39,50.04,1025.29,2048.96,1529.79,1780.01,2037.13,599.68,613.08,43.16,0000 0000 0000 0000 000000
2018-01-30 12:58:15,0.15,7.12,0.00,17.12,20.42,23.86,14.32,50.10,1025.18,2048.94,1528.65,1779.14,2036.21,599.57,612.79,43.21,0000 0000 0000 0000 000000